星链-2441 (STARLINK-2441 )

导读 | 豆包AI

STARLINK-2441是美国SpaceX公司星链(Starlink)项目中的一颗低轨通信卫星,于2021年4月29日发射入轨,属于星链第一代组网卫星。星链项目旨在构建全球低轨卫星互联网,为全球提供高速宽带服务。该卫星作为星链星座的组成部分,采用紧凑设计,依靠氪离子霍尔推进器进行轨道调整和离轨操作,支持Ku/Ka波段通信,服务地面互联网接入,助力扩展星链星座的全球覆盖范围。

Basic Information
目录编号:
48335
目录名称:
STARLINK-2441
国际标识:
2021-036BM
轨道中心:
EARTH
卫星名称:
星链-2441
卫星全名:
星链-2441 (STARLINK-2441 )
卫星状态:
已陨落 最后检测时间 2025-01-07
发射日期:
2021-04-29 UTC
国别 :
美国 (US)
星等 :
--
Orbit Information
数据来源 国际轨道数据
星历时间: 2025-01-08T08:12:27+0800
轨道信息已过期430天
半长轴: 6539.404km
偏心率: 0.0000727
轨道倾角: 53.004°
近地点辐角 286.044°
升交点赤经 194.203°
平近点角 121.935°
近地点: 160.793km
远地点: 161.745km
周期: 87.714分钟
每日圈数: 16.417068
Detailed Information
固有亮度:
5
最大亮度:
2.5
卫星平台:
Starlink V1.0
覆盖范围:
全球
运营商:
太空探索技术公司
运营商所在国:
美国
制造商(研发单位):
太空探索技术公司
制造商所在国:
美国
使用方式:
暂无
Satellite Introduction
星链(Starlink)计划是由太空探索技术公司(SpaceX)提出的一个巨型低轨卫星互联网星座项目,计划在2019年至2024年间在太空搭建由约1.2万颗卫星组成的“星链”网络,其中1584颗将部署在地球上空550千米处的近地轨道,并从2020年开始工作。该卫星仍在工作。